This is the latest recevied weather packets stored in our database for station/object E24QND-2. If no packets are shown the sender has not sent any weather packets the latest 10 day(s).
| Time | Temp. | Humidity | Pressure | Rain* | Wind** | Luminosity | Snow |
|---|---|---|---|---|---|---|---|
| 1777308857 | 23.89° C | 99% | - | - | - | 0 W/m² | - |
| 1777307632 | 23.33° C | 99% | - | - | - | 0 W/m² | - |
| 1777306382 | 28.89° C | 99% | - | - | - | 0 W/m² | - |
| 1777305158 | 30° C | 1% | - | - | - | 0 W/m² | - |
| 1777303933 | 30.56° C | 1% | - | - | - | 0 W/m² | - |
| 1777302709 | 31.11° C | 1% | - | - | - | 0 W/m² | - |
| 1777301485 | 31.11° C | 99% | - | - | - | 0 W/m² | - |
| 1777300260 | 31.67° C | 99% | - | - | - | 0 W/m² | - |
| 1777299035 | 32.22° C | 99% | - | - | - | 0 W/m² | - |
| 1777297811 | 32.22° C | 99% | - | - | - | 0 W/m² | - |
| 1777296586 | 32.78° C | 99% | - | - | - | 0 W/m² | - |
| 1777295362 | 32.78° C | 99% | - | - | - | 0 W/m² | - |
| 1777294137 | 33.33° C | 99% | - | - | - | 0 W/m² | - |
| 1777292913 | 33.33° C | 91% | - | - | - | 0 W/m² | - |
| 1777291688 | 33.89° C | 74% | - | - | - | 0 W/m² | - |
| 1777290463 | 33.89° C | 32% | - | - | - | 0 W/m² | - |
| 1777289239 | 34.44° C | 1% | - | - | - | 0 W/m² | - |
| 1777288014 | 35.56° C | 1% | - | - | - | 0 W/m² | - |
| 1777286789 | 35.56° C | 1% | - | - | - | 0 W/m² | - |
| 1777285565 | 36.67° C | 1% | - | - | - | 0 W/m² | - |
| 1777284340 | 37.22° C | 1% | - | - | - | 0 W/m² | - |
| 1777283116 | 37.22° C | 1% | - | - | - | 0 W/m² | - |
| 1777281891 | 36.67° C | 1% | - | - | - | 0 W/m² | - |
| 1777280667 | 36.67° C | 1% | - | - | - | 0 W/m² | - |
| 1777279442 | 36.11° C | 1% | - | - | - | 0 W/m² | - |
* Rain since midnight (hover to see other rain measurements)
** Current wind speed in m/s (hover to see current wind gust speed)